Погода в Собиртепе

Узбекистан     40°23′39″N   70°29′15″E
темп.,
°C
ветер,
м/с
пор.,
м/с
влажн.,
%
обл.,
%
осадки,
мм/ч
давл.,
гПа
погр.,
м
1 марта, пн
пн123:00+4св23377 0.0 102325
02:00+3св334098 0.0 102229
05:00+3св344198 0.0 102340
08:00+3св4846100 0.0 1023228
11:00+9всв573050 0.0 1021692
14:00+13всв45210 0.0 1020919
17:00+13всв33190 0.0 1020794
20:00+9св23260 0.0 102422
2 марта, вт
вт223:00+7всв22290 0.0 102522
02:00+6св333133 0.0 102527
05:00+5св344167 0.0 102450
08:00+6св3443100 0.0 1024135
11:00+11всв3427100 0.0 1023471
14:00+14св3320100 0.0 1021751
17:00+14св3420100 0.0 1021585
20:00+11ссв1226100 0.0 102322
3 марта, ср
ср323:00+10юз1227100 0.0 102322
02:00+10юз2335100 0.0 102325
05:00+10з2347100 0.0 102350
08:00+10юз2660100 0.0 1023360
11:00+11ссз225599 0.1 1022954
14:00+13св324598 0.0 10211363
17:00+13св434792 0.0 1021988
20:00+10св566074 0.0 1022362
4 марта, чт
чт423:00+8всв237085 0.1 102395
02:00+7св35802 0.0 1022104
05:00+6всв338643 0.0 102259
08:00+6св348226 0.0 1022185
11:00+11всв455563 0.0 1019870
14:00+15всв444065 0.0 10181210
17:00+15в113883 0.0 1019980
20:00+12юз3654100 0.4 1021405
5 марта, пт
пт523:00+12юз2359100 0.4 102271
02:00+10зюз3681100 1.6 1022401
05:00+9зюз91370100 2.0 1023633
08:00+7зюз141668100 0.3 1025611
11:00+7юз15196393 0.3 1026600
14:00+10зюз13164721 0.0 1024554
17:00+10зюз674610 0.0 1024321
20:00+8всв23540 0.0 102548